| time (UTC) | temp F | wind direction | speed MPH | gust MPH | rain 1hr in | rain 24hr in | rain mn in | humidity % | barometer mb |
| 20260506133108 | 43 | 71 | 0.0 | 0.0 | 0.01 | 0.88 | 0.65 | 97 | 1008.6 |
| 20260506131614 | 43 | 72 | 0.0 | 0.0 | 0.01 | 0.88 | 0.65 | 97 | 1008.4 |
| 20260506130054 | 43 | 46 | 0.0 | 0.0 | 0.02 | 0.88 | 0.65 | 97 | 1008.4 |
| 20260506124553 | 43 | 89 | 0.0 | 0.0 | 0.03 | 0.87 | 0.64 | 97 | 1008.3 |
| 20260506123052 | 43 | 71 | 0.0 | 0.0 | 0.03 | 0.87 | 0.64 | 97 | 1008.5 |
| 20260506121556 | 43 | 80 | 0.0 | 0.0 | 0.04 | 0.87 | 0.64 | 97 | 1008.3 |
| 20260506120100 | 43 | 75 | 0.0 | 0.0 | 0.03 | 0.86 | 0.63 | 97 | 1008.5 |
| 20260506114548 | 43 | 76 | 0.0 | 0.0 | 0.02 | 0.84 | 0.61 | 97 | 1008.4 |
| 20260506113047 | 43 | 75 | 0.0 | 0.0 | 0.03 | 0.84 | 0.61 | 97 | 1008.2 |
| 20260506111547 | 43 | 76 | 0.0 | 0.0 | 0.04 | 0.83 | 0.60 | 97 | 1008.0 |
| 20260506110052 | 43 | 54 | 0.0 | 3.0 | 0.06 | 0.83 | 0.60 | 97 | 1008.0 |
| 20260506104556 | 43 | 64 | 0.0 | 0.0 | 0.07 | 0.82 | 0.59 | 97 | 1008.1 |
| 20260506103045 | 44 | 66 | 0.0 | 0.0 | 0.08 | 0.81 | 0.57 | 97 | 1008.3 |
| 20260506101540 | 44 | 72 | 0.0 | 0.0 | 0.07 | 0.79 | 0.56 | 97 | 1008.3 |
| 20260506100042 | 44 | 29 | 0.0 | 0.0 | 0.06 | 0.77 | 0.54 | 97 | 1008.3 |
| 20260506094537 | 44 | 353 | 0.0 | 0.0 | 0.05 | 0.75 | 0.52 | 97 | 1008.6 |
| 20260506093035 | 44 | 16 | 0.0 | 0.0 | 0.04 | 0.73 | 0.50 | 97 | 1008.2 |
| 20260506091536 | 44 | 72 | 0.0 | 0.0 | 0.04 | 0.72 | 0.49 | 97 | 1008.0 |
| 20260506090035 | 45 | 76 | 0.0 | 0.0 | 0.05 | 0.71 | 0.48 | 97 | 1007.7 |
| 20260506084608 | 45 | 70 | 0.0 | 0.0 | 0.07 | 0.70 | 0.47 | 97 | 1007.9 |
| 20260506083036 | 45 | 4 | 0.0 | 0.0 | 0.10 | 0.69 | 0.46 | 97 | 1008.4 |
| 20260506081540 | 45 | 78 | 0.0 | 0.0 | 0.12 | 0.68 | 0.45 | 97 | 1008.0 |
| 20260506073028 | 45 | 52 | 0.0 | 0.0 | 0.11 | 0.60 | 0.36 | 97 | 1008.4 |
| 20260506071528 | 45 | 76 | 0.0 | 0.0 | 0.12 | 0.56 | 0.33 | 97 | 1007.9 |
| 20260506061520 | 46 | 48 | 0.0 | 0.0 | 0.13 | 0.45 | 0.21 | 97 | 1008.6 |
| 20260506044511 | 47 | 63 | 0.0 | 0.0 | 0.04 | 0.28 | 0.04 | 96 | 1009.0 |
| 20260506043005 | 47 | 69 | 0.0 | 0.0 | 0.04 | 0.26 | 0.02 | 96 | 1008.8 |
| 20260506041505 | 47 | 69 | 0.0 | 0.0 | 0.04 | 0.25 | 0.01 | 96 | 1008.6 |
| 20260506040003 | 47 | 80 | 0.0 | 0.0 | 0.03 | 0.24 | 0.00 | 96 | 1008.7 |
| 20260506034502 | 47 | 79 | 0.0 | 0.0 | 0.02 | 0.23 | 0.23 | 96 | 1009.0 |
| 20260506033001 | 47 | 145 | 0.0 | 0.0 | 0.01 | 0.22 | 0.22 | 96 | 1009.4 |
| 20260506031501 | 47 | 75 | 0.0 | 0.0 | 0.01 | 0.21 | 0.21 | 96 | 1009.0 |
| 20260506024600 | 47 | 65 | 0.0 | 0.0 | 0.03 | 0.21 | 0.21 | 96 | 1009.1 |
| 20260506023107 | 47 | 70 | 0.0 | 0.0 | 0.05 | 0.21 | 0.21 | 95 | 1009.3 |
| 20260506021612 | 47 | 79 | 0.0 | 0.0 | 0.05 | 0.20 | 0.20 | 95 | 1009.6 |
| 20260506020055 | 47 | 74 | 0.0 | 0.0 | 0.04 | 0.19 | 0.19 | 95 | 1009.7 |
| 20260506014554 | 48 | 77 | 0.0 | 0.0 | 0.04 | 0.18 | 0.18 | 95 | 1009.4 |
| 20260506013106 | 48 | 17 | 0.0 | 0.0 | 0.03 | 0.16 | 0.16 | 95 | 1009.6 |
| 20260506011612 | 48 | 17 | 0.0 | 0.0 | 0.02 | 0.15 | 0.15 | 94 | 1009.3 |
| 20260506010056 | 48 | 17 | 0.0 | 0.0 | 0.03 | 0.15 | 0.15 | 94 | 1008.8 |
| 20260506004548 | 48 | 17 | 0.0 | 0.0 | 0.02 | 0.14 | 0.14 | 94 | 1008.4 |
| 20260506003047 | 48 | 5 | 0.0 | 0.0 | 0.02 | 0.13 | 0.13 | 94 | 1008.7 |
| 20260506001547 | 48 | 6 | 0.0 | 0.0 | 0.05 | 0.13 | 0.13 | 93 | 1008.3 |
| 20260506000048 | 48 | 4 | 0.0 | 0.0 | 0.05 | 0.12 | 0.12 | 92 | 1008.3 |
| 20260505234545 | 48 | 4 | 0.0 | 0.0 | 0.07 | 0.12 | 0.12 | 91 | 1008.4 |
| 20260505233042 | 48 | 356 | 0.0 | 0.0 | 0.08 | 0.11 | 0.11 | 90 | 1008.3 |
| 20260505231554 | 49 | 45 | 0.0 | 0.0 | 0.07 | 0.08 | 0.08 | 89 | 1008.4 |
| 20260505230036 | 49 | 359 | 0.0 | 0.0 | 0.05 | 0.06 | 0.06 | 87 | 1008.1 |
| 20260505224533 | 50 | 4 | 0.0 | 0.0 | 0.04 | 0.05 | 0.05 | 84 | 1008.0 |
| 20260505223028 | 53 | 245 | 0.0 | 4.0 | 0.02 | 0.03 | 0.03 | 75 | 1008.0 |
| 20260505221523 | 55 | 345 | 0.0 | 0.0 | 0.00 | 0.01 | 0.01 | 68 | 1007.7 |
| 20260505220023 | 57 | 28 | 0.0 | 7.0 | 0.00 | 0.01 | 0.01 | 65 | 1007.1 |
| 20260505214517 | 60 | 67 | 0.0 | 1.0 | 0.00 | 0.01 | 0.01 | 66 | 1006.3 |
| 20260505213017 | 64 | 136 | 0.0 | 5.0 | 0.00 | 0.01 | 0.01 | 65 | 1005.5 |
| 20260505211512 | 65 | 203 | 0.0 | 2.0 | 0.00 | 0.01 | 0.01 | 64 | 1004.8 |
| 20260505210013 | 66 | 269 | 0.0 | 14.0 | 0.00 | 0.01 | 0.01 | 62 | 1004.8 |
| 20260505204511 | 66 | 208 | 0.0 | 4.0 | 0.00 | 0.01 | 0.01 | 61 | 1004.5 |
| 20260505203009 | 67 | 63 | 0.0 | 15.0 | 0.00 | 0.01 | 0.01 | 61 | 1004.4 |
| 20260505201512 | 68 | 214 | 0.0 | 7.0 | 0.00 | 0.01 | 0.01 | 60 | 1004.3 |
| 20260505200007 | 68 | 101 | 0.0 | 7.0 | 0.00 | 0.01 | 0.01 | 61 | 1004.3 |
| 20260505194503 | 68 | 193 | 0.0 | 5.0 | 0.00 | 0.01 | 0.01 | 60 | 1004.5 |
| 20260505193001 | 69 | 175 | 0.0 | 7.0 | 0.00 | 0.01 | 0.01 | 58 | 1004.1 |
| 20260505191501 | 70 | 240 | 0.0 | 6.0 | 0.00 | 0.01 | 0.01 | 57 | 1004.2 |
| 20260505190100 | 70 | 345 | 1.0 | 9.0 | 0.00 | 0.01 | 0.01 | 56 | 1004.2 |
| 20260505190001 | 70 | 207 | 0.0 | 9.0 | 0.00 | 0.01 | 0.01 | 57 | 1004.2 |
| 20260505184557 | 71 | 330 | 0.0 | 10.0 | 0.00 | 0.01 | 0.01 | 56 | 1003.9 |
| 20260505183057 | 72 | 283 | 0.0 | 3.0 | 0.00 | 0.01 | 0.01 | 54 | 1003.8 |
| 20260505181556 | 70 | 84 | 0.0 | 7.0 | 0.00 | 0.01 | 0.01 | 55 | 1003.6 |
| 20260505174555 | 70 | 153 | 1.0 | 14.0 | 0.00 | 0.01 | 0.01 | 54 | 1003.8 |
| 20260505173058 | 70 | 359 | 1.0 | 8.0 | 0.00 | 0.01 | 0.01 | 56 | 1003.5 |
| 20260505171553 | 69 | 243 | 0.0 | 10.0 | 0.00 | 0.01 | 0.01 | 60 | 1003.4 |
| 20260505170108 | 66 | 204 | 1.0 | 11.0 | 0.00 | 0.01 | 0.01 | 62 | 1003.4 |
| 20260505164554 | 67 | 207 | 0.0 | 8.0 | 0.00 | 0.01 | 0.01 | 60 | 1003.4 |
| 20260505163050 | 69 | 110 | 0.0 | 5.0 | 0.00 | 0.01 | 0.01 | 56 | 1003.4 |
| 20260505161552 | 69 | 152 | 0.0 | 5.0 | 0.00 | 0.01 | 0.01 | 57 | 1003.3 |
| 20260505153042 | 72 | 241 | 1.0 | 9.0 | 0.00 | 0.01 | 0.01 | 53 | 1002.0 |
| 20260505151554 | 71 | 119 | 0.0 | 10.0 | 0.00 | 0.01 | 0.01 | 55 | 1002.0 |